time,Dst
2024-04-30 02:00:00,14
2024-04-30 03:00:00,10
2024-04-30 04:00:00,9
2024-04-30 05:00:00,7
2024-04-30 06:00:00,1
2024-04-30 07:00:00,0
2024-04-30 08:00:00,2
2024-04-30 09:00:00,5
2024-04-30 10:00:00,7
2024-04-30 11:00:00,7
2024-04-30 12:00:00,7
2024-04-30 13:00:00,19
2024-04-30 14:00:00,33
2024-04-30 15:00:00,34
2024-04-30 16:00:00,25
2024-04-30 17:00:00,11
2024-04-30 18:00:00,-2
2024-04-30 19:00:00,-10
2024-04-30 20:00:00,-9
2024-04-30 21:00:00,-6
2024-04-30 22:00:00,-7
2024-04-30 23:00:00,-7
2024-05-01 00:00:00,-17
2024-05-01 01:00:00,-27
2024-05-01 02:00:00,-33
2024-05-01 03:00:00,-28
2024-05-01 04:00:00,-15
2024-05-01 05:00:00,-14
2024-05-01 06:00:00,-14
2024-05-01 07:00:00,-17
2024-05-01 08:00:00,-14
2024-05-01 09:00:00,-10
2024-05-01 10:00:00,-9
2024-05-01 11:00:00,-11
2024-05-01 12:00:00,-11
2024-05-01 13:00:00,-12
2024-05-01 14:00:00,-13
2024-05-01 15:00:00,-14
2024-05-01 16:00:00,-9
2024-05-01 17:00:00,-4
2024-05-01 18:00:00,1
2024-05-01 19:00:00,-2
2024-05-01 20:00:00,1
2024-05-01 21:00:00,5
2024-05-01 22:00:00,1
2024-05-01 23:00:00,2
2024-05-02 00:00:00,-1
2024-05-02 01:00:00,-2
2024-05-02 02:00:00,-2
2024-05-02 03:00:00,6
2024-05-02 04:00:00,5
2024-05-02 05:00:00,3
2024-05-02 06:00:00,2
2024-05-02 07:00:00,-4
2024-05-02 08:00:00,-4
2024-05-02 09:00:00,2
2024-05-02 10:00:00,7
2024-05-02 11:00:00,5
2024-05-02 12:00:00,-4
2024-05-02 13:00:00,-9
2024-05-02 14:00:00,-19
2024-05-02 15:00:00,-21
2024-05-02 16:00:00,-54
2024-05-02 17:00:00,-78
2024-05-02 18:00:00,-74
2024-05-02 19:00:00,-85
2024-05-02 20:00:00,-93
2024-05-02 21:00:00,-96
2024-05-02 22:00:00,-77
2024-05-02 23:00:00,-56
2024-05-03 00:00:00,-63
2024-05-03 01:00:00,-64
2024-05-03 02:00:00,-60
2024-05-03 03:00:00,-54
2024-05-03 04:00:00,-62
2024-05-03 05:00:00,-61
2024-05-03 06:00:00,-60
2024-05-03 07:00:00,-59
2024-05-03 08:00:00,-54
2024-05-03 09:00:00,-47
2024-05-03 10:00:00,-44
2024-05-03 11:00:00,-41
2024-05-03 12:00:00,-38
2024-05-03 13:00:00,-37
2024-05-03 14:00:00,-37
2024-05-03 15:00:00,-40
2024-05-03 16:00:00,-37
2024-05-03 17:00:00,-34
2024-05-03 18:00:00,-33
2024-05-03 19:00:00,-33
2024-05-03 20:00:00,-36
2024-05-03 21:00:00,-35
2024-05-03 22:00:00,-32
2024-05-03 23:00:00,-29
2024-05-04 00:00:00,-27
2024-05-04 01:00:00,-26
2024-05-04 02:00:00,-25
2024-05-04 03:00:00,-14
2024-05-04 04:00:00,-21
2024-05-04 05:00:00,-20
2024-05-04 06:00:00,-19
2024-05-04 07:00:00,-19
2024-05-04 08:00:00,-18
2024-05-04 09:00:00,-18
2024-05-04 10:00:00,-19
2024-05-04 11:00:00,-18
2024-05-04 12:00:00,-15
2024-05-04 13:00:00,-15
2024-05-04 14:00:00,-19
2024-05-04 15:00:00,-22
2024-05-04 16:00:00,-21
2024-05-04 17:00:00,-18
2024-05-04 18:00:00,-15
2024-05-04 19:00:00,-12
2024-05-04 20:00:00,-12
2024-05-04 21:00:00,-16
2024-05-04 22:00:00,-18
2024-05-04 23:00:00,-14
2024-05-05 00:00:00,-8
2024-05-05 01:00:00,-4
2024-05-05 02:00:00,-5
2024-05-05 03:00:00,-3
2024-05-05 04:00:00,-8
2024-05-05 05:00:00,-14
2024-05-05 06:00:00,-17
2024-05-05 07:00:00,-17
2024-05-05 08:00:00,-9
2024-05-05 09:00:00,-1
2024-05-05 10:00:00,-2
2024-05-05 11:00:00,0
2024-05-05 12:00:00,6
2024-05-05 13:00:00,12
2024-05-05 14:00:00,11
2024-05-05 15:00:00,11
2024-05-05 16:00:00,12
2024-05-05 17:00:00,11
2024-05-05 18:00:00,10
2024-05-05 19:00:00,11
2024-05-05 20:00:00,6
2024-05-05 21:00:00,-8
2024-05-05 22:00:00,-28
2024-05-05 23:00:00,-44
2024-05-06 00:00:00,-50
2024-05-06 01:00:00,-41
2024-05-06 02:00:00,-50
2024-05-06 03:00:00,-42
2024-05-06 04:00:00,-42
2024-05-06 05:00:00,-42
2024-05-06 06:00:00,-38
2024-05-06 07:00:00,-29
2024-05-06 08:00:00,-26
2024-05-06 09:00:00,-18
2024-05-06 10:00:00,-14
2024-05-06 11:00:00,-10
2024-05-06 12:00:00,-10
2024-05-06 13:00:00,-7
2024-05-06 14:00:00,-8
2024-05-06 15:00:00,-13
2024-05-06 16:00:00,-9
2024-05-06 17:00:00,-11
2024-05-06 18:00:00,-14
2024-05-06 19:00:00,-15
2024-05-06 20:00:00,-17
2024-05-06 21:00:00,-20
2024-05-06 22:00:00,-20
2024-05-06 23:00:00,-19
2024-05-07 00:00:00,-16
2024-05-07 01:00:00,-14
2024-05-07 02:00:00,-13
2024-05-07 03:00:00,-10
2024-05-07 04:00:00,-14
2024-05-07 05:00:00,-16
2024-05-07 06:00:00,-14
2024-05-07 07:00:00,-10
2024-05-07 08:00:00,-4
2024-05-07 09:00:00,-5
2024-05-07 10:00:00,-7
2024-05-07 11:00:00,-8
2024-05-07 12:00:00,-10
2024-05-07 13:00:00,-13
2024-05-07 14:00:00,-16
2024-05-07 15:00:00,-18
2024-05-07 16:00:00,-18
2024-05-07 17:00:00,-16
2024-05-07 18:00:00,-20
2024-05-07 19:00:00,-14
2024-05-07 20:00:00,-12
2024-05-07 21:00:00,-10
2024-05-07 22:00:00,-8
2024-05-07 23:00:00,-6
2024-05-08 00:00:00,-7
2024-05-08 01:00:00,-6
2024-05-08 02:00:00,-2
2024-05-08 03:00:00,1
2024-05-08 04:00:00,-3
2024-05-08 05:00:00,-3
2024-05-08 06:00:00,-2
2024-05-08 07:00:00,-3
2024-05-08 08:00:00,-1
2024-05-08 09:00:00,0
2024-05-08 10:00:00,0
2024-05-08 11:00:00,-1
2024-05-08 12:00:00,0
2024-05-08 13:00:00,0
2024-05-08 14:00:00,-3
2024-05-08 15:00:00,-5
2024-05-08 16:00:00,-5
2024-05-08 17:00:00,-2
2024-05-08 18:00:00,-2
2024-05-08 19:00:00,1
2024-05-08 20:00:00,1
2024-05-08 21:00:00,-1
2024-05-08 22:00:00,2
2024-05-08 23:00:00,3
2024-05-09 00:00:00,4
2024-05-09 01:00:00,6
2024-05-09 02:00:00,10
2024-05-09 03:00:00,11
2024-05-09 04:00:00,8
2024-05-09 05:00:00,5
2024-05-09 06:00:00,3
2024-05-09 07:00:00,2
2024-05-09 08:00:00,3
2024-05-09 09:00:00,5
2024-05-09 10:00:00,7
2024-05-09 11:00:00,8
2024-05-09 12:00:00,11
2024-05-09 13:00:00,12
2024-05-09 14:00:00,13
2024-05-09 15:00:00,10
2024-05-09 16:00:00,8
2024-05-09 17:00:00,12
2024-05-09 18:00:00,16
2024-05-09 19:00:00,19
2024-05-09 20:00:00,17
2024-05-09 21:00:00,14
2024-05-09 22:00:00,10
2024-05-09 23:00:00,9
2024-05-10 00:00:00,6
2024-05-10 01:00:00,4
2024-05-10 02:00:00,3
2024-05-10 03:00:00,5
2024-05-10 04:00:00,13
2024-05-10 05:00:00,6
2024-05-10 06:00:00,-4
2024-05-10 07:00:00,-3
2024-05-10 08:00:00,6
2024-05-10 09:00:00,4
2024-05-10 10:00:00,6
2024-05-10 11:00:00,5
2024-05-10 12:00:00,-3
2024-05-10 13:00:00,-7
2024-05-10 14:00:00,-7
2024-05-10 15:00:00,0
2024-05-10 16:00:00,13
2024-05-10 17:00:00,18
2024-05-10 18:00:00,62
2024-05-10 19:00:00,-36
2024-05-10 20:00:00,-135
2024-05-10 21:00:00,-165
2024-05-10 22:00:00,-287
2024-05-10 23:00:00,-351
2024-05-11 00:00:00,-318
2024-05-11 01:00:00,-322
2024-05-11 02:00:00,-397
2024-05-11 03:00:00,-412
2024-05-11 04:00:00,-403
2024-05-11 05:00:00,-399
2024-05-11 06:00:00,-369
2024-05-11 07:00:00,-332
2024-05-11 08:00:00,-384
2024-05-11 09:00:00,-373
2024-05-11 10:00:00,-306
2024-05-11 11:00:00,-326
2024-05-11 12:00:00,-274
2024-05-11 13:00:00,-264
2024-05-11 14:00:00,-287
2024-05-11 15:00:00,-292
2024-05-11 16:00:00,-275
2024-05-11 17:00:00,-277
2024-05-11 18:00:00,-253
2024-05-11 19:00:00,-206
2024-05-11 20:00:00,-202
2024-05-11 21:00:00,-197
2024-05-11 22:00:00,-179
2024-05-11 23:00:00,-169
2024-05-12 00:00:00,-178
2024-05-12 01:00:00,-159
2024-05-12 02:00:00,-149
2024-05-12 03:00:00,-141
2024-05-12 04:00:00,-145
2024-05-12 05:00:00,-148
2024-05-12 06:00:00,-154
2024-05-12 07:00:00,-144
2024-05-12 08:00:00,-142
2024-05-12 09:00:00,-140
2024-05-12 10:00:00,-122
2024-05-12 11:00:00,-111
2024-05-12 12:00:00,-114
2024-05-12 13:00:00,-114
2024-05-12 14:00:00,-112
2024-05-12 15:00:00,-112
2024-05-12 16:00:00,-106
2024-05-12 17:00:00,-103
2024-05-12 18:00:00,-98
2024-05-12 19:00:00,-89
2024-05-12 20:00:00,-86
2024-05-12 21:00:00,-83
2024-05-12 22:00:00,-86
2024-05-12 23:00:00,-98
2024-05-13 00:00:00,-92
2024-05-13 01:00:00,-83
2024-05-13 02:00:00,-83
2024-05-13 03:00:00,-89
2024-05-13 04:00:00,-96
2024-05-13 05:00:00,-102
2024-05-13 06:00:00,-96
2024-05-13 07:00:00,-96
2024-05-13 08:00:00,-77
2024-05-13 09:00:00,-71
2024-05-13 10:00:00,-67
2024-05-13 11:00:00,-65
2024-05-13 12:00:00,-67
2024-05-13 13:00:00,-65
2024-05-13 14:00:00,-72
2024-05-13 15:00:00,-68
2024-05-13 16:00:00,-61
2024-05-13 17:00:00,-61
2024-05-13 18:00:00,-60
2024-05-13 19:00:00,-58
2024-05-13 20:00:00,-55
2024-05-13 21:00:00,-55
2024-05-13 22:00:00,-53
2024-05-13 23:00:00,-55
2024-05-14 00:00:00,-56
2024-05-14 01:00:00,-53
2024-05-14 02:00:00,-55
2024-05-14 03:00:00,-55
2024-05-14 04:00:00,-58
2024-05-14 05:00:00,-55
2024-05-14 06:00:00,-52
2024-05-14 07:00:00,-53
2024-05-14 08:00:00,-53
2024-05-14 09:00:00,-54
2024-05-14 10:00:00,-58
2024-05-14 11:00:00,-59
2024-05-14 12:00:00,-59
2024-05-14 13:00:00,-60
2024-05-14 14:00:00,-56
2024-05-14 15:00:00,-56
2024-05-14 16:00:00,-54
2024-05-14 17:00:00,-48
2024-05-14 18:00:00,-46
2024-05-14 19:00:00,-48
2024-05-14 20:00:00,-48
2024-05-14 21:00:00,-48
2024-05-14 22:00:00,-48
2024-05-14 23:00:00,-50
2024-05-15 00:00:00,-54
2024-05-15 01:00:00,-53
